Powrót do katalogu

STARLINK-11163

AktywnyŁącznośćVLEO
NORAD 60047·PAYLOAD·🇺🇸 United States

Wystrzelony Jun 8, 2024 z Vandenberg Space Force Base

Loading…

Następne Przeloty (najbliższe 24 godziny)

TLE

ŚwieżeSource: CelesTrak SupGP

Epoka: Sep 14, 2026, 22:13 UTC

1 60047C 24112K   26257.92618056  .00090912  00000+0  75041-3 0  2573
2 60047  53.1571  53.2206 0001069  81.5743 335.7025 15.69614536    15

Śledź STARLINK-11163 w czasie rzeczywistym z AllMySat

Download on the App Store